Wetbulb
65.48 67.47 68.58 71.40 71.85 71.99 71.07 70.59 70.39 71.26 73.02 73.67 72.50 72.35 71.84 73.16 73.30 72.40 75.73 75.94 73.79 70.79 72.15 75.68 74.24 73.48 74.37 74.94 73.79 74.29 71.20 72.48 72.44 71.64 71.52 70.73 71.27 73.29 73.57 74.37 72.47 73.15 71.96
64.68 66.38 67.66 70.94 71.16 71.12 71.84 70.04 73.11 72.99 72.85 73.67 73.08 72.57 71.99 73.02 73.82 74.24 75.12 75.39 75.30 74.54 76.67 74.56 73.84 74.51 69.46 68.31 67.10 68.85 69.78 73.43 73.67 71.65 68.92 65.92 66.78 70.76 72.35 71.89 72.67 71.98 72.48
64.41 65.29 67.18 69.54 71.05 71.21 72.21 72.20 73.79 73.97 73.79 73.75 74.24 74.08 73.63 73.18 72.22 73.28 75.10 75.26 76.26 76.40 74.42 72.57 73.99 75.23 69.28 65.29 68.00 68.20 69.04 70.17 73.14 73.41 69.38 64.96 63.46 67.50 69.40 70.46 71.21 70.50 70.06
65.74 65.98 67.36 68.73 70.80 71.84 73.03 73.27 74.49 74.30 74.07 73.84 73.90 72.43 70.75 69.47 71.28 70.94 73.39 75.31 75.98 76.21 76.37 74.79 76.30 76.18 69.96 67.91 72.95 71.08 69.05 70.77 71.23 72.97 74.47 71.59 69.07 66.86 64.98 69.63 71.13 70.12 69.46
66.18 66.07 67.43 68.94 71.05 72.16 72.96 73.55 73.68 75.19 74.30 74.37 74.85 73.53 73.10 72.34 73.55 73.32 73.62 75.11 76.47 76.22 76.79 76.08 75.67 76.07 70.06 69.55 72.95 71.56 71.06 73.41 73.23 72.31 71.56 71.15 69.97 69.05 66.23 63.68 67.51 69.18 68.89
66.43 66.76 67.91 69.07 69.63 72.32 72.85 73.90 73.32 73.79 75.21 74.76 74.73 74.09 73.69 71.14 71.47 73.66 73.28 75.25 74.86 75.23 76.17 76.35 77.20 77.04 76.54 74.21 74.52 74.63 75.16 74.82 74.53 73.72 72.99 71.91 69.46 68.37 65.32 65.61 66.16 65.93 66.72
66.07 66.35 66.63 67.45 67.92 69.50 71.40 73.58 73.74 73.41 74.68 76.37 75.11 74.59 74.89 75.04 71.94 74.27 72.68 73.14 72.09 71.92 73.39 76.73 76.15 76.10 77.03 77.11 77.50 76.39 75.87 75.10 74.24 72.13 73.94 74.34 73.17 71.43 69.93 66.83 66.74 64.50 66.29
66.12 66.14 66.76 67.31 67.64 68.06 69.46 71.81 73.27 73.38 75.14 74.62 75.76 75.39 75.46 76.29 75.29 73.91 73.67 72.34 72.92 73.98 74.99 76.90 77.04 75.95 76.78 76.46 76.92 76.54 76.07 76.39 75.49 74.44 74.49 74.19 74.05 73.08 70.02 68.27 66.34 64.06 64.90
65.69 65.99 67.02 67.55 67.79 67.48 68.79 71.74 73.42 74.20 75.42 74.93 75.44 76.39 75.76 75.79 73.91 73.97 73.31 73.99 74.05 75.17 75.13 75.51 73.87 74.18 74.18 74.65 76.01 76.01 75.84 76.19 75.41 74.54 75.02 74.11 73.92 72.67 72.35 70.97 68.04 65.73 63.05
66.04 66.52 66.96 67.51 67.91 68.00 68.85 73.87 74.46 75.24 75.54 75.82 75.92 76.39 76.52 76.52 75.81 76.19 75.50 75.90 76.44 76.34 76.59 77.07 77.00 76.91 77.15 77.25 76.74 76.77 76.34 75.96 75.54 75.36 75.10 74.38 74.11 74.43 72.80 72.00 69.80 69.84 66.93
64.29 65.29 67.13 67.77 68.68 69.29 69.41 73.44 74.82 74.98 75.31 75.72 75.59 75.56 76.26 76.77 76.74 76.24 76.38 76.20 75.88 75.57 75.94 77.02 77.19 77.04 76.97 77.24 77.00 76.94 76.62 75.97 74.84 75.07 74.87 73.96 74.76 74.29 73.75 70.99 70.02 68.22 69.23
63.64 62.97 64.79 69.66 69.06 68.01 68.42 71.66 73.68 75.08 75.63 75.02 75.27 74.98 75.76 76.03 76.37 75.79 75.96 76.43 76.09 77.47 77.61 77.41 76.88 76.68 77.07 77.37 77.25 77.04 77.27 76.24 75.52 75.48 75.34 75.06 76.62 74.39 73.89 70.62 71.11 70.20 69.91
62.13 62.27 65.96 67.17 67.36 67.90 69.02 70.39 72.50 73.88 74.83 74.65 74.66 74.05 74.61 74.64 74.91 74.61 75.11 74.83 75.54 76.59 77.33 76.90 76.26 77.50 77.43 77.40 77.73 77.60 77.14 76.78 76.54 76.18 75.56 75.28 74.85 74.28 73.27 71.01 70.93 70.28 70.10
62.23 66.87 65.79 64.93 66.27 67.09 66.93 67.50 67.87 68.53 68.56 67.47 67.31 67.73 68.29 68.16 68.80 69.03 69.75 70.33 71.19 71.38 71.42 71.59 71.25 74.30 76.95 76.90 76.22 77.97 77.39 77.24 77.27 76.96 76.37 75.40 74.88 73.80 72.77 71.27 70.04 69.03 69.64
65.84 65.28 64.80 65.08 65.33 65.72 66.49 66.88 67.18 67.65 67.86 67.92 68.90 69.35 70.26 70.32 68.83 69.02 69.77 70.48 68.87 69.87 70.53 70.81 70.90 71.34 72.34 71.77 69.97 72.15 74.21 75.23 75.41 76.11 76.37 75.78 75.13 73.67 73.01 72.25 70.59 68.83 68.88
64.65 64.74 65.07 65.15 64.89 65.58 66.43 67.34 67.63 67.52 68.19 66.25 66.05 66.50 66.16 66.87 67.33 67.08 66.35 67.30 69.24 68.87 69.93 69.64 69.13 69.47 71.88 66.94 66.99 67.65 68.15 69.32 68.88 70.79 73.55 75.38 75.06 73.07 69.70 70.13 71.03 71.39 68.89
63.49 63.50 63.71 64.13 64.48 65.18 65.83 65.65 66.28 66.12 65.72 63.24 63.53 65.34 65.98 65.64 66.18 67.70 66.88 66.76 68.63 69.16 69.02 69.21 68.61 68.01 68.19 66.79 62.27 64.89 65.53 65.67 65.45 66.96 69.43 71.90 74.81 73.02 70.56 67.71 67.86 68.72 69.07
63.54 63.36 63.37 63.64 63.82 63.92 63.68 63.99 63.86 63.95 65.78 63.30 64.41 65.38 65.35 65.18 65.14 64.26 63.94 65.17 65.75 64.89 64.45 65.67 67.86 68.23 68.23 65.34 62.83 64.21 64.13 64.90 66.65 66.73 66.53 68.28 69.71 72.66 71.43 69.03 67.80 67.37 66.77
63.17 63.14 63.61 63.40 62.68 63.14 63.91 62.79 62.76 61.90 60.68 62.93 60.53 60.67 61.29 60.81 61.59 61.98 62.73 63.28 63.61 64.19 64.18 65.33 65.15 64.56 66.74 63.55 62.13 62.04 63.38 65.63 65.05 65.73 65.78 65.67 67.51 66.89 64.85 71.04 68.47 67.30 67.71
63.91 63.32 62.83 62.56 62.03 61.61 61.36 59.95 59.81 59.83 59.82 60.35 61.04 61.48 62.05 62.26 62.04 61.95 61.87 62.31 63.13 63.81 64.77 64.38 63.38 63.44 63.29 61.74 60.18 60.90 63.24 63.43 63.33 64.08 64.43 63.80 65.08 59.77 60.63 70.32 69.49 67.30 67.60
63.13 63.14 62.64 61.63 60.80 59.39 58.84 58.09 58.40 59.17 60.38 61.15 61.37 61.56 61.68 62.08 61.54 61.64 61.92 61.63 61.22 61.42 61.55 62.17 62.61 62.44 62.61 63.44 59.58 59.29 62.33 63.16 63.80 63.50 63.14 63.03 59.14 55.80 55.78 57.23 66.62 69.05 66.15
60.15 60.79 59.49 58.43 58.63 59.16 59.30 58.35 58.70 60.37 60.87 60.85 60.93 60.75 61.06 62.37 62.22 60.62 60.80 60.75 60.43 60.38 60.61 60.63 61.09 62.20 62.23 60.25 59.86 57.78 57.34 59.61 62.17 63.28 63.96 64.08 56.99 54.88 54.33 56.87 58.68 58.84 62.05
57.62 57.97 57.16 57.30 58.46 59.04 59.45 58.22 59.82 60.68 60.87 60.06 59.81 60.22 60.30 60.48 60.68 59.68 59.35 59.76 59.52 58.92 59.07 58.88 58.39 59.11 59.36 59.06 56.94 55.16 55.88 58.88 58.48 64.64 63.01 58.15 55.06 54.15 57.23 55.92 55.38 57.78 64.72
56.55 57.57 57.15 56.70 57.29 58.86 59.59 59.52 60.31 60.31 59.59 58.77 59.16 59.43 58.84 58.63 58.68 59.39 58.25 56.42 56.20 54.87 55.46 54.65 54.99 55.16 56.24 57.50 57.20 58.07 58.65 58.89 60.73 63.15 65.10 63.12 60.61 58.12 59.51 60.85 60.29 62.38 65.58
57.71 56.94 57.33 56.81 57.81 58.55 58.45 59.45 59.41 59.28 58.36 58.28 57.99 56.91 56.60 55.80 56.40 56.22 56.57 55.98 55.37 54.94 55.33 54.44 54.28 53.34 54.60 55.89 55.00 51.69 54.87 55.72 56.45 58.07 59.60 60.18 62.58 62.19 61.16 63.37 62.59 64.43 65.60
57.53 57.56 56.93 56.85 57.21 57.31 56.98 57.24 58.02 57.07 55.95 54.86 55.12 54.98 55.01 54.89 55.64 55.72 55.93 55.39 53.30 51.45 49.44 47.55 49.28 54.81 52.38 50.24 49.21 46.32 46.32 47.84 48.69 54.48 57.74 58.59 60.36 61.26 60.45 60.46 61.65 63.16 65.02
MSLP
1007.62 1008.01 1008.51 1009.44 1010.36 1010.93 1011.68 1012.27 1012.95 1013.39 1013.81 1014.39 1014.64 1014.65 1014.60 1014.18 1014.02 1013.99 1014.50 1014.58 1014.26 1014.54 1014.78 1014.85 1014.77 1014.94 1015.60 1015.34 1015.05 1015.33 1015.42 1015.16 1014.89 1015.29 1014.53 1014.43 1014.19 1014.37 1014.22 1014.29 1014.63 1014.72 1015.11
1007.21 1007.64 1008.25 1009.15 1009.99 1010.72 1011.40 1012.14 1012.70 1013.19 1013.48 1013.95 1014.06 1014.11 1014.15 1014.02 1013.79 1013.55 1014.23 1014.28 1014.25 1014.43 1014.32 1014.75 1015.23 1015.40 1015.51 1016.13 1016.19 1016.41 1016.44 1015.66 1014.76 1015.29 1015.40 1015.62 1015.07 1014.90 1014.81 1014.69 1014.83 1015.01 1015.17
1006.19 1007.28 1008.02 1008.83 1009.74 1010.52 1011.03 1011.68 1012.33 1012.77 1013.04 1013.42 1013.73 1013.95 1014.01 1013.88 1013.68 1013.63 1013.68 1013.89 1013.76 1013.82 1013.77 1013.77 1014.45 1015.34 1015.61 1016.46 1016.43 1015.41 1016.48 1016.82 1015.00 1014.93 1015.78 1016.18 1016.07 1015.59 1015.17 1015.06 1014.99 1015.02 1015.26
1005.43 1006.37 1007.28 1008.36 1009.16 1009.94 1010.50 1011.07 1011.72 1012.27 1012.67 1012.98 1013.45 1013.78 1013.77 1013.97 1013.75 1013.55 1013.44 1013.32 1013.24 1013.41 1013.56 1013.57 1013.70 1014.67 1015.60 1016.37 1016.90 1016.45 1016.55 1017.19 1015.65 1014.91 1015.03 1015.64 1015.81 1015.80 1015.69 1015.10 1015.46 1015.44 1015.46
1004.69 1005.71 1006.45 1007.34 1008.26 1009.08 1009.90 1010.50 1011.15 1011.81 1012.16 1012.58 1012.90 1013.39 1013.61 1013.51 1013.39 1013.39 1013.21 1013.08 1013.13 1012.93 1013.00 1012.96 1013.29 1014.05 1015.32 1015.34 1015.68 1015.90 1016.41 1016.24 1015.28 1015.30 1015.30 1015.41 1015.26 1015.58 1015.85 1015.86 1015.92 1015.82 1015.82
1004.44 1005.14 1005.88 1006.66 1007.58 1008.32 1009.09 1009.94 1010.57 1011.08 1011.57 1011.98 1012.38 1012.90 1013.27 1013.30 1013.45 1013.57 1013.54 1013.37 1013.06 1012.99 1013.09 1012.57 1013.00 1013.51 1014.32 1015.10 1015.24 1015.15 1014.89 1014.99 1014.87 1015.06 1015.22 1015.00 1015.23 1015.48 1015.56 1015.98 1015.78 1015.73 1016.06
1003.97 1004.89 1005.81 1006.43 1006.99 1007.86 1008.49 1009.16 1009.74 1010.36 1010.80 1011.36 1011.84 1012.28 1012.76 1013.06 1013.27 1013.33 1013.26 1013.34 1013.19 1013.12 1012.98 1012.73 1012.82 1013.16 1013.45 1013.87 1014.00 1014.06 1014.02 1014.12 1014.42 1014.85 1014.87 1014.56 1014.47 1014.57 1014.68 1015.32 1015.52 1015.67 1015.98
1004.00 1004.84 1005.35 1006.06 1006.52 1007.07 1007.71 1008.47 1009.31 1009.84 1010.37 1010.96 1011.34 1011.73 1012.19 1012.62 1012.81 1012.98 1013.05 1013.00 1012.96 1012.91 1012.65 1012.62 1012.81 1012.99 1012.98 1013.14 1013.23 1013.34 1013.33 1013.57 1013.93 1014.21 1014.24 1014.18 1013.99 1014.01 1014.58 1014.92 1015.31 1015.94 1015.92
1005.47 1004.62 1005.11 1005.82 1006.41 1006.75 1007.08 1007.79 1008.72 1009.49 1009.99 1010.45 1011.03 1011.43 1011.83 1012.21 1012.54 1012.68 1012.79 1012.82 1012.72 1012.64 1012.64 1012.54 1012.79 1012.96 1012.94 1012.93 1012.90 1012.91 1012.99 1013.10 1013.29 1013.39 1013.45 1013.59 1013.36 1013.68 1014.07 1014.06 1014.40 1014.97 1015.60
1005.75 1004.90 1005.23 1005.50 1005.65 1005.73 1006.18 1007.16 1008.05 1008.84 1009.44 1010.00 1010.53 1011.02 1011.44 1011.85 1012.21 1012.57 1012.77 1012.77 1012.76 1012.63 1012.55 1012.54 1012.51 1012.57 1012.70 1012.74 1012.77 1012.75 1012.64 1012.72 1012.72 1012.76 1012.90 1012.92 1012.92 1013.09 1013.40 1013.50 1013.86 1013.93 1013.89
1005.15 1005.79 1006.29 1005.62 1005.39 1005.18 1005.41 1006.55 1007.60 1008.58 1009.22 1009.69 1010.09 1010.65 1011.20 1011.70 1012.08 1012.42 1012.59 1012.63 1012.57 1012.55 1012.49 1012.47 1012.44 1012.42 1012.44 1012.41 1012.41 1012.40 1012.31 1012.26 1012.16 1012.11 1012.26 1012.36 1012.46 1012.62 1012.91 1013.71 1013.80 1013.83 1014.39
1005.76 1005.97 1007.71 1007.57 1006.25 1005.74 1005.38 1005.92 1007.00 1007.93 1008.54 1008.99 1009.80 1010.56 1011.05 1011.52 1012.00 1012.34 1012.62 1012.66 1012.68 1012.59 1012.46 1012.29 1012.25 1012.28 1012.26 1012.21 1012.11 1012.07 1011.95 1011.94 1011.96 1011.84 1011.89 1011.84 1011.76 1011.98 1012.40 1013.64 1014.05 1013.84 1013.34
1005.87 1009.04 1009.11 1009.38 1007.73 1007.90 1007.28 1007.40 1007.91 1008.73 1009.42 1010.01 1010.53 1011.33 1012.00 1012.41 1012.76 1013.09 1013.22 1013.32 1013.31 1013.03 1012.61 1012.35 1012.27 1012.03 1011.79 1011.81 1011.69 1011.43 1011.39 1011.54 1011.54 1011.41 1011.51 1011.54 1011.47 1011.65 1011.94 1012.54 1012.83 1013.05 1012.98
1008.98 1010.26 1010.35 1009.82 1008.86 1008.82 1008.66 1009.07 1009.51 1010.14 1010.83 1011.02 1011.47 1012.04 1012.57 1012.88 1013.42 1013.78 1013.80 1013.97 1014.39 1014.35 1014.32 1014.02 1012.88 1012.12 1011.60 1011.61 1011.40 1011.02 1010.87 1010.83 1010.98 1011.01 1010.94 1010.97 1010.99 1011.20 1011.39 1011.75 1011.78 1012.20 1012.32
1010.14 1010.37 1010.66 1009.50 1009.56 1009.45 1010.11 1010.62 1011.13 1011.56 1011.71 1011.66 1011.92 1012.64 1012.97 1013.09 1013.58 1014.06 1014.04 1014.14 1014.91 1014.85 1014.44 1013.32 1014.00 1012.31 1012.48 1012.20 1011.63 1011.62 1011.09 1011.13 1010.97 1010.89 1010.80 1010.56 1010.34 1010.21 1010.34 1010.92 1011.34 1011.41 1011.79
1008.89 1009.02 1009.38 1009.83 1010.02 1010.98 1011.25 1011.69 1012.36 1012.64 1012.77 1013.08 1013.29 1013.77 1013.23 1013.43 1013.71 1013.21 1013.97 1013.75 1013.64 1014.01 1013.22 1014.73 1014.35 1013.21 1012.06 1012.58 1012.10 1011.92 1011.95 1011.62 1011.17 1011.00 1010.77 1010.52 1009.99 1009.74 1009.72 1009.83 1010.05 1010.29 1010.83
1009.37 1009.82 1010.38 1010.56 1010.91 1011.69 1011.89 1012.26 1012.81 1012.99 1013.04 1013.34 1013.47 1013.89 1014.30 1014.04 1013.41 1012.57 1013.70 1013.95 1013.70 1013.66 1013.76 1013.97 1013.82 1013.16 1012.82 1012.64 1012.04 1011.88 1011.69 1011.65 1011.61 1011.07 1010.58 1010.32 1009.91 1009.55 1009.53 1009.53 1009.58 1009.81 1009.86
1009.32 1010.05 1010.59 1010.93 1011.57 1011.98 1012.12 1012.37 1012.98 1013.43 1013.73 1013.67 1013.93 1013.99 1014.42 1014.38 1014.19 1013.25 1013.74 1014.27 1013.68 1013.31 1013.29 1013.66 1013.74 1013.25 1012.84 1012.22 1011.89 1011.58 1011.45 1011.26 1011.22 1010.94 1010.38 1010.15 1009.85 1009.46 1009.22 1009.31 1009.55 1009.61 1009.62
1010.18 1010.31 1010.51 1011.22 1011.84 1012.13 1012.46 1012.67 1013.13 1013.50 1013.73 1014.03 1014.09 1014.09 1014.02 1014.11 1014.04 1014.07 1014.17 1014.07 1014.13 1013.95 1014.10 1014.20 1013.83 1013.26 1012.39 1012.12 1011.81 1011.50 1011.20 1011.03 1010.87 1010.50 1010.04 1009.71 1009.67 1009.33 1008.95 1008.93 1009.04 1009.29 1009.33
1010.18 1010.81 1010.99 1011.16 1011.66 1012.25 1012.68 1013.01 1013.41 1013.75 1014.24 1014.31 1014.40 1014.33 1014.29 1014.39 1014.46 1014.58 1014.54 1014.45 1014.42 1014.29 1014.32 1013.79 1013.33 1012.81 1012.31 1011.98 1011.54 1011.18 1011.10 1010.93 1010.42 1010.04 1009.66 1009.35 1009.41 1009.22 1008.82 1008.84 1008.44 1008.72 1008.74
1010.02 1010.64 1011.30 1011.68 1011.93 1012.52 1012.97 1013.55 1013.77 1014.25 1014.39 1014.47 1014.59 1014.67 1014.70 1014.75 1014.68 1014.62 1014.62 1014.56 1014.47 1014.27 1013.92 1013.28 1012.90 1012.56 1012.18 1011.64 1010.70 1010.22 1010.36 1010.16 1009.76 1009.55 1009.42 1009.20 1009.15 1009.05 1008.87 1008.87 1008.93 1008.19 1008.11
1010.59 1011.11 1011.88 1012.29 1012.41 1012.82 1013.36 1013.89 1014.18 1014.26 1014.38 1014.61 1014.88 1015.00 1014.96 1014.83 1014.61 1014.60 1014.37 1014.11 1013.94 1013.58 1013.19 1012.87 1012.34 1011.76 1011.13 1010.62 1010.41 1010.05 1009.84 1009.52 1009.54 1009.23 1009.00 1008.89 1008.98 1008.90 1008.65 1008.55 1008.44 1008.45 1008.13
1011.65 1012.03 1012.65 1013.01 1012.96 1013.20 1013.61 1014.11 1014.15 1014.17 1014.37 1014.57 1014.64 1014.67 1014.56 1014.45 1014.24 1014.23 1014.11 1013.98 1013.75 1013.50 1013.22 1012.85 1012.48 1011.97 1011.37 1010.81 1010.32 1009.80 1009.48 1009.42 1009.74 1009.20 1008.87 1008.81 1008.83 1008.82 1008.49 1008.39 1008.21 1008.07 1008.36
1012.43 1012.87 1013.15 1013.25 1013.42 1013.59 1013.90 1014.20 1014.31 1014.31 1014.54 1014.72 1014.75 1014.71 1014.56 1014.33 1014.10 1013.90 1013.62 1013.45 1013.33 1013.18 1012.83 1012.53 1012.09 1011.65 1011.27 1010.82 1010.13 1009.69 1009.47 1009.38 1009.27 1009.04 1008.77 1008.63 1008.59 1008.63 1008.50 1008.35 1008.11 1007.93 1007.69
1012.96 1013.10 1013.37 1013.67 1014.08 1014.21 1014.44 1014.47 1014.63 1014.66 1014.91 1014.99 1014.97 1014.84 1014.60 1014.37 1013.99 1013.57 1013.31 1013.08 1012.75 1012.56 1012.29 1012.09 1011.79 1011.43 1010.92 1010.48 1009.99 1009.97 1009.63 1009.31 1009.01 1008.75 1008.56 1008.34 1008.24 1008.16 1007.98 1008.00 1007.82 1007.39 1007.25
1012.97 1013.33 1013.80 1014.21 1014.68 1014.89 1015.11 1015.20 1015.16 1015.23 1015.27 1015.29 1015.21 1015.04 1014.78 1014.55 1014.23 1013.69 1013.05 1012.51 1012.22 1011.92 1011.59 1011.18 1011.19 1010.77 1010.22 1009.81 1009.59 1009.54 1009.17 1009.16 1008.90 1008.77 1008.55 1008.19 1007.89 1007.66 1007.38 1007.31 1007.09 1006.89 1006.58
Wind_Speed
10 11 12 16 14 11 9 9 10 10 8 4 3 3 4 4 3 3 9 8 6 4 2 3 4 1 2 4 4 4 4 2 3 2 5 4 5 5 5 5 4 5 5
12 13 13 15 16 13 9 9 9 10 7 7 4 3 2 4 3 4 7 7 6 6 5 5 4 3 3 8 8 7 4 5 1 1 1 4 5 3 1 4 4 6 4
17 16 14 18 16 15 13 11 9 9 7 8 4 3 2 2 2 1 3 6 7 4 6 5 4 6 5 5 3 5 2 6 3 1 4 3 1 4 2 1 2 6 4
19 18 16 17 18 16 15 13 11 11 8 8 4 4 4 3 3 3 3 5 7 6 6 7 7 7 6 7 8 5 5 6 3 4 1 2 5 3 3 1 2 4 5
22 21 19 19 18 17 16 14 12 11 10 8 7 5 4 3 3 2 5 5 5 7 7 6 6 4 7 7 8 6 9 8 1 1 2 1 3 3 2 2 1 3 2
21 21 18 18 16 18 17 15 15 13 12 11 9 8 6 6 2 1 0 3 3 3 6 6 4 5 5 10 8 10 6 3 2 1 1 1 2 3 2 1 4 4 2
21 21 19 17 14 17 18 16 17 15 14 10 10 8 8 7 6 3 2 3 2 2 6 7 5 4 3 4 3 3 2 2 2 2 3 2 3 3 2 2 1 2 2
16 19 19 17 15 13 17 18 16 14 11 11 11 8 8 5 4 4 3 4 2 2 4 3 4 5 4 3 3 2 3 4 3 5 5 3 4 1 2 2 3 2 1
17 18 17 17 14 10 13 14 17 13 12 12 7 7 7 7 5 6 5 4 4 4 3 1 4 4 3 2 3 3 4 3 4 5 5 4 4 3 4 3 4 5 2
18 16 15 17 15 12 9 16 16 15 14 11 9 7 7 6 5 3 3 3 3 3 2 2 2 2 1 2 3 3 4 2 2 2 4 3 3 4 2 4 3 3 5
9 8 7 10 15 14 12 16 15 13 12 11 8 8 6 6 5 5 4 5 4 4 5 4 4 4 4 4 4 4 5 6 6 4 5 6 4 4 3 3 0 3 1
19 25 13 18 5 2 9 15 15 14 13 10 10 8 7 7 5 5 5 5 5 5 5 5 5 6 5 5 5 5 5 5 6 6 5 6 3 5 5 4 8 7 3
25 20 6 7 14 14 14 14 10 8 7 9 14 13 12 11 9 10 10 11 10 8 7 6 6 6 6 6 7 7 6 6 6 6 6 7 6 4 3 5 7 3 3
15 9 6 3 14 15 17 16 18 17 15 17 16 16 14 13 13 11 10 10 10 10 12 11 8 7 6 3 5 5 6 5 5 6 6 6 6 6 5 5 7 6 4
17 13 10 12 14 17 17 16 16 14 13 15 14 10 9 11 10 9 7 6 10 11 6 13 13 6 5 5 5 6 5 5 4 5 6 7 8 10 8 5 8 7 6
14 14 14 14 14 15 13 12 11 10 12 12 10 8 6 6 5 7 5 6 3 4 6 8 9 11 5 3 3 5 5 6 5 6 6 7 9 8 9 12 15 14 9
12 13 13 12 12 10 7 10 7 6 5 7 4 3 5 5 2 5 4 5 4 2 3 7 7 8 8 9 2 3 2 4 6 7 6 7 6 7 6 6 7 10 11
12 12 9 9 8 7 8 8 7 7 5 4 2 1 3 4 4 6 6 4 6 7 9 10 11 9 8 13 10 7 5 5 7 8 8 7 8 7 8 7 7 7 6
9 8 8 8 7 7 7 7 6 5 5 5 3 2 4 5 6 6 6 5 6 5 6 9 9 8 8 11 14 12 7 6 8 7 7 7 6 7 10 9 9 7 7
10 7 9 8 8 5 6 8 6 7 7 6 5 5 5 6 5 5 6 4 4 6 6 7 9 10 12 12 14 11 4 9 6 6 7 5 2 4 8 9 10 9 9
8 7 8 7 8 8 7 6 6 6 5 5 5 5 5 5 6 5 2 4 6 6 7 8 8 8 9 12 17 18 8 9 8 5 5 4 4 5 6 3 6 9 6
8 10 8 7 6 7 7 5 5 3 3 2 1 2 4 4 4 6 6 6 6 7 8 9 9 8 10 12 13 18 17 14 7 7 3 4 6 9 6 4 8 7 8
8 7 7 7 6 6 6 5 0 1 2 3 4 4 5 5 6 5 6 5 6 6 8 7 7 8 7 4 2 7 6 7 4 5 5 5 8 9 7 8 10 6 3
7 7 8 7 6 5 5 4 4 3 2 3 4 5 6 7 6 4 4 4 3 4 6 6 7 6 7 8 6 4 2 1 3 5 4 5 7 6 6 7 4 4 5
7 6 5 5 6 6 5 7 7 7 6 6 5 6 4 6 7 5 4 4 5 5 7 6 5 5 7 8 10 8 8 7 7 6 3 4 4 5 4 5 7 5 5
6 7 8 8 8 8 7 7 7 7 5 4 4 4 4 5 7 7 7 9 10 13 15 14 9 8 13 14 15 11 10 11 7 2 4 4 5 7 6 6 7 6 7
Wind_Direction
175 161 156 139 143 141 143 146 151 169 159 163 188 225 233 230 234 184 162 183 229 238 223 198 253 281 249 184 48 35 4 316 307 283 337 13 105 124 144 155 167 130 136
167 165 155 146 154 155 150 156 150 166 170 170 207 190 213 259 212 201 167 189 215 216 234 171 224 142 99 41 40 63 350 306 46 34 31 352 349 12 87 161 137 135 126
161 167 160 155 159 162 162 165 164 174 179 186 195 224 258 345 15 150 194 194 195 192 203 233 183 119 92 88 85 119 221 291 308 99 143 348 302 330 138 206 138 120 122
160 166 162 160 162 170 170 171 168 178 189 196 203 202 192 191 224 213 220 207 201 218 204 210 206 133 123 99 7 289 232 248 283 350 14 197 164 237 325 50 56 107 113
161 168 167 165 168 167 172 178 176 175 188 194 192 199 209 207 245 266 243 201 190 216 226 212 219 191 140 177 186 198 221 233 133 108 315 44 36 71 110 294 200 49 39
163 166 168 166 164 173 175 177 181 188 183 194 200 193 202 223 223 287 182 235 236 241 238 227 204 205 171 175 186 208 208 207 180 178 287 250 198 204 191 36 248 160 194
160 165 169 174 175 173 178 180 183 190 192 179 192 192 197 218 202 215 242 274 262 236 265 197 211 207 200 223 222 216 247 245 198 190 240 258 258 170 183 126 277 119 178
163 169 171 175 182 180 176 184 182 188 181 186 186 189 189 200 199 191 228 254 268 286 315 209 199 222 221 235 235 220 229 246 220 214 217 226 262 165 124 148 143 344 256
244 168 162 173 183 184 186 169 182 186 179 182 171 179 187 194 202 220 230 244 260 279 358 163 170 192 203 243 258 244 253 251 233 229 229 215 244 186 192 168 156 160 205
207 160 165 175 183 187 175 165 173 175 180 171 173 175 177 192 201 204 248 242 253 292 325 329 328 335 318 277 273 262 269 280 268 228 259 232 211 195 164 140 156 179 174
103 74 50 192 186 186 172 163 169 169 171 171 165 164 176 181 198 219 239 247 260 273 279 268 257 257 255 260 257 255 258 263 277 281 252 261 248 223 161 125 12 319 324
74 15 353 347 14 220 187 157 170 168 173 164 160 166 173 178 188 211 246 272 275 283 272 270 264 255 247 239 239 254 260 256 267 275 278 270 262 229 209 118 137 245 199
116 174 271 312 64 55 53 53 74 72 78 81 74 64 57 55 45 42 30 19 2 329 307 297 287 267 241 236 235 228 234 245 252 261 267 269 275 268 186 172 181 211 218
125 145 130 94 75 69 65 64 70 71 76 76 74 70 68 64 58 43 28 21 2 354 346 339 340 325 282 1 346 273 240 234 244 254 252 257 254 254 249 181 183 182 207
130 136 133 89 76 73 70 66 64 62 70 78 78 72 72 76 70 49 33 28 33 348 355 342 309 347 31 16 20 1 20 22 353 320 285 261 249 239 233 176 188 187 195
100 101 89 89 86 80 79 79 72 63 62 49 60 37 62 105 114 102 10 353 117 297 17 303 309 321 358 311 12 30 353 346 337 308 302 299 293 273 264 222 189 188 189
104 93 91 88 86 92 101 91 92 92 81 88 78 39 301 300 322 84 176 304 312 26 301 299 293 302 307 289 290 274 317 315 296 286 286 295 285 261 223 212 183 198 205
110 104 98 90 85 93 83 89 86 85 102 95 99 287 269 269 282 31 11 318 341 347 329 313 302 297 293 298 298 305 301 285 274 277 273 268 280 273 207 192 202 215 212
106 114 115 114 112 103 122 114 115 113 101 117 108 31 11 1 4 354 340 333 320 315 293 278 278 287 299 315 304 305 289 265 263 267 268 271 290 310 254 203 201 211 223
125 128 119 108 93 89 78 66 74 77 66 61 50 27 7 350 337 308 295 287 285 281 277 293 294 292 294 287 281 278 269 281 270 267 269 270 247 338 355 233 202 199 216
124 109 99 104 101 83 72 57 56 64 65 56 38 12 342 326 303 302 299 268 270 274 274 286 283 269 257 269 276 278 274 260 263 241 256 270 308 351 357 303 275 229 183
100 100 106 103 97 89 82 71 68 70 61 62 30 275 272 273 283 280 280 279 279 282 284 279 277 272 273 270 282 293 307 296 269 259 238 256 261 298 311 302 254 302 241
76 75 93 89 81 82 86 75 341 51 27 2 328 321 313 294 278 274 276 279 271 273 285 293 310 314 309 308 41 80 46 23 326 325 306 287 291 299 310 279 266 222 256
72 65 61 56 53 58 57 62 49 42 1 300 297 295 284 275 283 277 262 262 291 306 295 289 301 300 311 321 310 298 321 253 223 269 270 249 247 271 279 308 264 226 226
79 73 60 54 50 47 30 33 36 28 18 4 336 320 326 320 304 299 283 273 268 246 283 281 265 270 289 277 275 287 295 289 259 260 274 265 240 235 253 280 281 251 224
54 55 53 50 34 39 42 29 24 23 16 359 334 318 318 324 304 293 289 271 265 272 276 261 238 273 261 263 273 281 261 282 260 180 232 257 256 246 228 230 247 262 246